Home   Weather   Pirna   Past weeks

Flag for Germany Past Weather in Pirna, Saxony, Germany — Yesterday and Last 2 Weeks

Now
37 °F

Broken clouds.


Feels Like: 30 °F
Forecast: 34 / 58 °F
Wind: 10 mph from Northwest

Location: Dresden-Klotzsche

Current Time: Apr 23, 2017 at 8:00:27 am

Latest Report: Apr 23, 2017 at 7:20 am


Visibility: N/A

Pressure: 30.09 "Hg

Humidity: 87%

Dew Point: 34 °F

Location of PirnaLocation

Past Weather in Pirna — Graph

°F

Pirna Temperature Yesterday

Maximum temperature yesterday: 50 °F (at 12:20 am)
Minimum temperature yesterday: 41 °F (at 5:50 am)
Average temperature yesterday: 45 °F

High & Low Weather Summary for the Past Weeks

 TemperatureHumidityPressure
High70 °F (Apr 10, 1:50 pm)100% (Apr 9, 2:20 am)30.54 "Hg (Apr 9, 2:20 am)
Low28 °F (Apr 19, 5:20 am)35% (Apr 10, 2:20 pm)29.77 "Hg (Apr 13, 12:50 am)
Average45 °F73%30.10 "Hg
* Reported Apr 8 6:20 am — Apr 23 6:50 am, Pirna, Weather by CustomWeather, © 2017

Note: Actual official high and low records may vary slightly from our data, if they occured in-between our weather recording intervals... More about our weather records

Advertising

Pirna Weather History for the Previous 24 Hours

Scroll right to see more
 ConditionsComfort  
Time TempWeatherWind HumidityBarometerVisibility
6:50 am
Sun, Apr 23
37 °FBroken clouds.15 mph87%30.09 "HgN/A
6:20 am39 °FPartly sunny.10 mph81%30.07 "HgN/A
5:50 am37 °FPassing clouds.9 mph87%30.07 "HgN/A
5:20 am37 °FPassing clouds.10 mph87%30.07 "HgN/A
4:50 am37 °FPassing clouds.10 mph87%30.07 "HgN/A
4:20 am37 °FPassing clouds.12 mph87%30.07 "HgN/A
3:50 am37 °FPassing clouds.12 mph81%30.07 "HgN/A
3:20 am37 °FPassing clouds.13 mph81%30.07 "HgN/A
2:50 am39 °FPassing clouds.14 mph75%30.07 "HgN/A
2:20 am39 °FPassing clouds.12 mph75%30.07 "HgN/A
1:50 am39 °FPassing clouds.13 mph75%30.07 "HgN/A
1:20 am41 °FPassing clouds.12 mph70%30.07 "HgN/A
12:50 am41 °FPassing clouds.13 mph70%30.07 "HgN/A
12:20 am41 °FPassing clouds.13 mph70%30.07 "HgN/A
11:50 pm
Sat, Apr 22
41 °FPartly cloudy.7 mph70%30.07 "HgN/A
11:20 pm41 °FPassing clouds.6 mph70%30.07 "HgN/A
10:50 pm41 °FLight rain. Partly cloudy.10 mph70%30.07 "HgN/A
10:20 pm43 °FPassing clouds.13 mph66%30.07 "HgN/A
9:50 pm43 °FPassing clouds.9 mph66%30.04 "HgN/A
9:20 pm43 °FClear.10 mph66%30.04 "Hg10 mi
8:50 pm43 °FPassing clouds.10 mph66%30.04 "HgN/A
8:20 pm45 °FPartly cloudy.10 mph61%30.04 "HgN/A
7:50 pm45 °FBroken clouds.10 mph57%30.04 "HgN/A
7:20 pm45 °FBroken clouds.15 mph57%30.04 "HgN/A
6:50 pm46 °FBroken clouds.13 mph50%30.04 "HgN/A
6:20 pm46 °FScattered clouds.12 mph53%30.04 "HgN/A
5:50 pm46 °FScattered clouds.15 mph50%30.04 "HgN/A
5:20 pm46 °FBroken clouds.17 mph50%30.04 "HgN/A
4:50 pm48 °FScattered clouds.16 mph43%30.04 "HgN/A
4:20 pm48 °FScattered clouds.16 mph50%30.04 "HgN/A
3:50 pm46 °FBroken clouds.18 mph50%30.04 "HgN/A
3:20 pm45 °FScattered clouds.16 mph53%30.07 "HgN/A
2:50 pm46 °FScattered clouds.16 mph53%30.07 "HgN/A
2:20 pm43 °FSprinkles. Partly sunny.21 mph71%30.07 "HgN/A
1:50 pm46 °FBroken clouds.16 mph57%30.07 "HgN/A
1:20 pm46 °FBroken clouds.15 mph53%30.07 "HgN/A
12:50 pm45 °FBroken clouds.15 mph61%30.07 "HgN/A
12:20 pm43 °FBroken clouds.13 mph71%30.09 "HgN/A
11:50 am43 °FPartly sunny.17 mph71%30.09 "HgN/A
11:20 am43 °FPartly sunny.14 mph66%30.09 "HgN/A
10:50 am43 °FPartly sunny.17 mph66%30.09 "HgN/A
10:20 am43 °FBroken clouds.15 mph71%30.09 "HgN/A
9:50 am43 °FBroken clouds.14 mph71%30.09 "HgN/A
9:20 am43 °FBroken clouds.13 mph76%30.09 "HgN/A
8:50 am43 °FBroken clouds.14 mph76%30.09 "HgN/A
8:20 am41 °FBroken clouds.15 mph81%30.09 "HgN/A
Weather by CustomWeather, © 2017

See weather overviewHow to use our weather pages